Weather History for KTPH - September, 2013

Change the Weather History Date:

Wednesday, September 18, 2013

  Actual Average Record
Temperature  
Mean Temperature 62 °F 64 °F  
Max Temperature 74 °F 80 °F 90 °F (1991)
Min Temperature 50 °F 48 °F 28 °F (1978)
Degree Days  
Heating Degree Days 3 3  
Month to date heating degree days 3 30  
Since 1 July heating degree days 3 36  
Cooling Degree Days 0 2  
Month to date cooling degree days 121 58  
Year to date cooling degree days 1042 771  
Growing Degree Days 12 (Base 50)    
Moisture  
Dew Point 25 °F    
Average Humidity 29    
Maximum Humidity 42    
Minimum Humidity 15    
Precipitation  
Precipitation 0.00 in 0.02 in 0.51 in (1966)
Month to date precipitation 1.38 0.24  
Year to date precipitation 4.03 4.01  
Sea Level Pressure  
Sea Level Pressure 29.84 in    
Wind  
Wind Speed 12 mph (NNW)    
Max Wind Speed 24 mph    
Max Gust Speed 29 mph    
Visibility 10 miles    
Events      
T = Trace of Precipitation, MM = Missing Value Source: NWS Daily Summary

Daily Weather History Graph

Daily Weather History Graph

Search for Another Location

Airport or City:

Trip Planner

Search our weather history database for the weather conditions in past years. The results will help you decide how hot, cold, wet, or windy it might be!

Date:

Astronomy

Sep. 18, 2013 Rise Set
Actual Time 6:32 AM PDT 6:51 PM PDT
Civil Twilight 6:06 AM PDT 7:17 PM PDT
Nautical Twilight 5:35 AM PDT 7:48 PM PDT
Astronomical Twilight 5:04 AM PDT 8:19 PM PDT
Moon 6:17 PM PDT (9/18) 5:40 AM PDT (9/18)
Length of Visible Light 13h 10m
Length of Day
12h 18m
Waxing Gibbous, 99% of the Moon is Illuminated
Sep 18
Waxing Gibbous
Sep 19
Full
Sep 26
Last Quarter
Oct 4
New
Oct 11
First Quarter

Hourly Weather History & Observations

Time (PDT) Temp. Dew Point Humidity Pressure Visibility Wind Dir Wind Speed Gust Speed Precip Events Conditions
12:56 AM 61.0 °F 17.1 °F 18% 29.72 in 10.0 mi NNW 15.0 mph - N/A   Clear
1:56 AM 59.0 °F 19.9 °F 22% 29.73 in 10.0 mi NNW 17.3 mph - N/A   Clear
2:56 AM 57.0 °F 23.0 °F 27% 29.74 in 10.0 mi NNW 10.4 mph 20.7 mph N/A   Clear
3:56 AM 55.9 °F 24.1 °F 29% 29.75 in 10.0 mi NNW 12.7 mph - N/A   Clear
4:56 AM 53.1 °F 28.9 °F 40% 29.78 in 10.0 mi NNW 10.4 mph - N/A   Clear
5:56 AM 51.1 °F 28.9 °F 43% 29.81 in 10.0 mi NNW 5.8 mph - N/A   Clear
6:56 AM 50.0 °F 28.9 °F 44% 29.85 in 10.0 mi NNE 5.8 mph - N/A   Clear
7:56 AM 55.0 °F 30.9 °F 40% 29.86 in 10.0 mi North 11.5 mph - N/A   Clear
8:56 AM 60.1 °F 30.0 °F 32% 29.87 in 10.0 mi North 17.3 mph - N/A   Clear
9:56 AM 62.1 °F 30.9 °F 31% 29.87 in 10.0 mi NW 17.3 mph - N/A   Clear
10:56 AM 64.9 °F 30.0 °F 27% 29.87 in 10.0 mi NW 11.5 mph 20.7 mph N/A   Clear
11:56 AM 68.0 °F 26.1 °F 21% 29.86 in 10.0 mi NW 15.0 mph 21.9 mph N/A   Clear
12:56 PM 69.1 °F 21.9 °F 17% 29.86 in 10.0 mi NW 13.8 mph 21.9 mph N/A   Clear
1:56 PM 71.1 °F 23.0 °F 16% 29.84 in 10.0 mi NW 15.0 mph 21.9 mph N/A   Clear
2:56 PM 72.0 °F 25.0 °F 17% 29.83 in 10.0 mi NW 18.4 mph 25.3 mph N/A   Clear
3:56 PM 73.0 °F 24.1 °F 16% 29.81 in 10.0 mi NW 10.4 mph 19.6 mph N/A   Clear
4:56 PM 73.0 °F 23.0 °F 15% 29.82 in 10.0 mi NW 12.7 mph - N/A   Clear
5:56 PM 72.0 °F 23.0 °F 16% 29.83 in 10.0 mi NW 13.8 mph - N/A   Clear
6:56 PM 68.0 °F 21.9 °F 17% 29.85 in 10.0 mi NW 11.5 mph - N/A   Clear
7:56 PM 64.9 °F 25.0 °F 22% 29.88 in 10.0 mi NW 8.1 mph - N/A   Clear
8:56 PM 64.0 °F 24.1 °F 22% 29.89 in 10.0 mi NNW 16.1 mph 20.7 mph N/A   Clear
9:56 PM 61.0 °F 26.1 °F 26% 29.91 in 10.0 mi NW 9.2 mph - N/A   Clear
10:56 PM 59.0 °F 25.0 °F 27% 29.92 in 10.0 mi North 8.1 mph - N/A   Clear
11:56 PM 55.9 °F 24.1 °F 29% 29.93 in 10.0 mi North 9.2 mph - N/A   Clear